| time (UTC) | temp C | wind direction | speed KPH | gust KPH | rain 1hr cm | rain 24hr cm | rain mn cm | humidity % | barometer mb |
| 20260505230839 | 17 | 230 | 0.0 | 1.6 | 0.00 | 0.10 | 0.10 | 90 | 1005.4 |
| 20260505230336 | 17 | 89 | 0.0 | 3.2 | 0.00 | 0.10 | 0.10 | 90 | 1005.2 |
| 20260505225832 | 17 | 22 | 0.0 | 1.6 | 0.00 | 0.10 | 0.10 | 89 | 1005.1 |
| 20260505225330 | 17 | 20 | 3.2 | 4.8 | 0.00 | 0.10 | 0.10 | 88 | 1005.5 |
| 20260505224825 | 17 | 86 | 3.2 | 3.2 | 0.00 | 0.10 | 0.10 | 90 | 1005.1 |
| 20260505224323 | 17 | 113 | 4.8 | 4.8 | 0.00 | 0.10 | 0.10 | 87 | 1005.2 |
| 20260505223820 | 17 | 319 | 0.0 | 3.2 | 0.00 | 0.10 | 0.10 | 85 | 1005.5 |
| 20260505223317 | 18 | 356 | 0.0 | 3.2 | 0.05 | 0.10 | 0.10 | 83 | 1005.2 |
| 20260505222812 | 18 | 258 | 3.2 | 4.8 | 0.05 | 0.10 | 0.10 | 81 | 1005.1 |
| 20260505222309 | 18 | 40 | 0.0 | 4.8 | 0.00 | 0.10 | 0.10 | 79 | 1005.2 |
| 20260505221806 | 18 | 65 | 0.0 | 9.7 | 0.00 | 0.10 | 0.10 | 77 | 1005.5 |
| 20260505221302 | 18 | 138 | 6.4 | 6.4 | 0.00 | 0.10 | 0.10 | 76 | 1005.3 |
| 20260505220800 | 18 | 175 | 3.2 | 8.0 | 0.00 | 0.10 | 0.10 | 78 | 1005.1 |
| 20260505220257 | 19 | 219 | 4.8 | 8.0 | 0.00 | 0.10 | 0.10 | 75 | 1005.0 |
| 20260505215755 | 19 | 66 | 1.6 | 1.6 | 0.00 | 0.10 | 0.10 | 75 | 1004.3 |
| 20260505215252 | 19 | 80 | 6.4 | 6.4 | 0.00 | 0.10 | 0.10 | 73 | 1004.5 |
| 20260505214750 | 19 | 213 | 0.0 | 6.4 | 0.00 | 0.10 | 0.10 | 75 | 1004.6 |
| 20260505214247 | 20 | 83 | 1.6 | 3.2 | 0.00 | 0.10 | 0.10 | 76 | 1004.6 |
| 20260505213744 | 19 | 261 | 3.2 | 8.0 | 0.00 | 0.10 | 0.10 | 75 | 1004.6 |
| 20260505213242 | 19 | 64 | 3.2 | 6.4 | 0.00 | 0.10 | 0.10 | 76 | 1004.3 |
| 20260505212737 | 20 | 89 | 4.8 | 4.8 | 0.00 | 0.10 | 0.10 | 75 | 1004.4 |
| 20260505212235 | 20 | 146 | 3.2 | 6.4 | 0.00 | 0.10 | 0.10 | 77 | 1004.2 |
| 20260505211732 | 20 | 153 | 3.2 | 6.4 | 0.00 | 0.10 | 0.10 | 77 | 1004.4 |
| 20260505211229 | 20 | 102 | 3.2 | 3.2 | 0.00 | 0.10 | 0.10 | 78 | 1004.2 |
| 20260505210725 | 19 | 173 | 0.0 | 3.2 | 0.00 | 0.10 | 0.10 | 80 | 1004.4 |
| 20260505210222 | 18 | 133 | 1.6 | 4.8 | 0.00 | 0.10 | 0.10 | 80 | 1004.4 |
| 20260505205720 | 18 | 49 | 0.0 | 4.8 | 0.00 | 0.10 | 0.10 | 82 | 1004.5 |
| 20260505205218 | 18 | 103 | 4.8 | 4.8 | 0.00 | 0.10 | 0.10 | 82 | 1004.5 |
| 20260505204714 | 18 | 148 | 3.2 | 4.8 | 0.00 | 0.10 | 0.10 | 83 | 1004.8 |
| 20260505204212 | 18 | 198 | 0.0 | 4.8 | 0.00 | 0.10 | 0.10 | 82 | 1004.8 |
| 20260505203709 | 17 | 19 | 3.2 | 3.2 | 0.00 | 0.10 | 0.10 | 88 | 1004.6 |
| 20260505203206 | 17 | 35 | 1.6 | 3.2 | 0.00 | 0.10 | 0.10 | 90 | 1004.5 |
| 20260505202701 | 16 | 22 | 4.8 | 6.4 | 0.00 | 0.10 | 0.10 | 89 | 1004.8 |
| 20260505202158 | 16 | 30 | 4.8 | 6.4 | 0.00 | 0.10 | 0.10 | 92 | 1005.0 |
| 20260505201654 | 16 | 106 | 1.6 | 3.2 | 0.00 | 0.10 | 0.10 | 94 | 1005.0 |
| 20260505201152 | 16 | 89 | 3.2 | 4.8 | 0.05 | 0.10 | 0.10 | 95 | 1004.9 |
| 20260505200650 | 16 | 51 | 3.2 | 9.7 | 0.05 | 0.10 | 0.10 | 94 | 1004.9 |
| 20260505200147 | 16 | 30 | 3.2 | 9.7 | 0.00 | 0.08 | 0.08 | 92 | 1005.0 |
| 20260505195642 | 16 | 349 | 3.2 | 11.3 | 0.05 | 0.08 | 0.08 | 92 | 1005.0 |
| 20260505195140 | 16 | 96 | 11.3 | 11.3 | 0.00 | 0.08 | 0.08 | 90 | 1005.5 |
| 20260505194637 | 16 | 340 | 3.2 | 16.1 | 0.23 | 0.08 | 0.08 | 89 | 1005.9 |
| 20260505194133 | 16 | 277 | 17.7 | 20.9 | 0.36 | 0.08 | 0.08 | 88 | 1006.1 |
| 20260505193630 | 18 | 80 | 11.3 | 29.0 | 0.00 | 0.00 | 0.00 | 76 | 1005.4 |
| 20260505193127 | 24 | 188 | 19.3 | 20.9 | 0.00 | 0.00 | 0.00 | 39 | 1003.8 |
| 20260505192626 | 24 | 264 | 9.7 | 16.1 | 0.00 | 0.00 | 0.00 | 38 | 1003.1 |
| 20260505192123 | 24 | 243 | 14.5 | 29.0 | 0.00 | 0.00 | 0.00 | 37 | 1002.7 |
| 20260505191621 | 24 | 261 | 16.1 | 27.4 | 0.00 | 0.00 | 0.00 | 38 | 1002.9 |
| 20260505191119 | 25 | 266 | 12.9 | 24.1 | 0.00 | 0.00 | 0.00 | 38 | 1002.7 |
| 20260505190614 | 25 | 218 | 20.9 | 30.6 | 0.00 | 0.00 | 0.00 | 37 | 1002.6 |
| 20260505190109 | 25 | 201 | 3.2 | 24.1 | 0.00 | 0.00 | 0.00 | 40 | 1002.9 |
| 20260505185607 | 25 | 166 | 16.1 | 33.8 | 0.00 | 0.00 | 0.00 | 38 | 1002.6 |
| 20260505185102 | 25 | 219 | 14.5 | 19.3 | 0.00 | 0.00 | 0.00 | 39 | 1002.9 |
| 20260505184559 | 25 | 257 | 12.9 | 37.0 | 0.00 | 0.00 | 0.00 | 39 | 1002.8 |
| 20260505184056 | 25 | 173 | 16.1 | 37.0 | 0.00 | 0.00 | 0.00 | 39 | 1003.1 |
| 20260505183553 | 25 | 181 | 11.3 | 27.4 | 0.00 | 0.00 | 0.00 | 42 | 1003.0 |
| 20260505183051 | 25 | 290 | 14.5 | 35.4 | 0.00 | 0.00 | 0.00 | 45 | 1003.1 |
| 20260505182541 | 25 | 318 | 9.7 | 20.9 | 0.00 | 0.00 | 0.00 | 48 | 1003.1 |
| 20260505182037 | 25 | 332 | 3.2 | 19.3 | 0.00 | 0.00 | 0.00 | 47 | 1003.4 |
| 20260505181534 | 25 | 247 | 3.2 | 14.5 | 0.00 | 0.00 | 0.00 | 47 | 1003.7 |
| 20260505181032 | 24 | 154 | 4.8 | 25.7 | 0.00 | 0.00 | 0.00 | 49 | 1003.7 |
| 20260505180527 | 24 | 259 | 6.4 | 24.1 | 0.00 | 0.00 | 0.00 | 48 | 1003.7 |
| 20260505180026 | 24 | 141 | 11.3 | 19.3 | 0.00 | 0.00 | 0.00 | 47 | 1004.0 |
| 20260505175526 | 24 | 214 | 6.4 | 24.1 | 0.00 | 0.00 | 0.00 | 46 | 1004.0 |
| 20260505175023 | 24 | 248 | 8.0 | 24.1 | 0.00 | 0.00 | 0.00 | 47 | 1003.9 |
| 20260505174520 | 24 | 272 | 16.1 | 30.6 | 0.00 | 0.00 | 0.00 | 47 | 1004.1 |
| 20260505174016 | 24 | 205 | 4.8 | 20.9 | 0.00 | 0.00 | 0.00 | 46 | 1004.4 |
| 20260505173513 | 24 | 331 | 3.2 | 17.7 | 0.00 | 0.00 | 0.00 | 47 | 1004.2 |
| 20260505173010 | 24 | 175 | 4.8 | 24.1 | 0.00 | 0.00 | 0.00 | 49 | 1004.2 |
| 20260505172508 | 23 | 250 | 9.7 | 25.7 | 0.00 | 0.00 | 0.00 | 47 | 1004.4 |
| 20260505172008 | 23 | 245 | 16.1 | 17.7 | 0.00 | 0.00 | 0.00 | 48 | 1004.1 |
| 20260505171504 | 23 | 242 | 9.7 | 20.9 | 0.00 | 0.00 | 0.00 | 47 | 1004.2 |
| 20260505171001 | 23 | 237 | 8.0 | 19.3 | 0.00 | 0.00 | 0.00 | 46 | 1004.2 |
| 20260505170458 | 23 | 324 | 3.2 | 24.1 | 0.00 | 0.00 | 0.00 | 47 | 1004.1 |
| 20260505165953 | 23 | 258 | 9.7 | 32.2 | 0.00 | 0.00 | 0.00 | 47 | 1004.1 |
| 20260505165450 | 24 | 184 | 1.6 | 16.1 | 0.00 | 0.00 | 0.00 | 46 | 1003.7 |
| 20260505164945 | 24 | 148 | 4.8 | 11.3 | 0.00 | 0.00 | 0.00 | 48 | 1003.8 |
| 20260505164442 | 24 | 222 | 6.4 | 9.7 | 0.00 | 0.00 | 0.00 | 45 | 1003.8 |
| 20260505163940 | 24 | 122 | 0.0 | 12.9 | 0.00 | 0.00 | 0.00 | 46 | 1003.7 |
| 20260505163438 | 24 | 225 | 6.4 | 12.9 | 0.00 | 0.00 | 0.00 | 46 | 1003.8 |
| 20260505162937 | 23 | 214 | 6.4 | 20.9 | 0.00 | 0.00 | 0.00 | 47 | 1004.0 |
| 20260505162433 | 23 | 272 | 8.0 | 27.4 | 0.00 | 0.00 | 0.00 | 47 | 1004.2 |
| 20260505161930 | 23 | 286 | 9.7 | 22.5 | 0.00 | 0.00 | 0.00 | 46 | 1004.2 |
| 20260505161426 | 23 | 247 | 6.4 | 29.0 | 0.00 | 0.00 | 0.00 | 46 | 1004.1 |
| 20260505160924 | 23 | 283 | 8.0 | 19.3 | 0.00 | 0.00 | 0.00 | 45 | 1004.3 |
| 20260505160422 | 24 | 222 | 20.9 | 29.0 | 0.00 | 0.00 | 0.00 | 45 | 1004.5 |
| 20260505152858 | 24 | 308 | 6.4 | 19.3 | 0.00 | 0.00 | 0.00 | 46 | 1004.4 |
| 20260505152355 | 23 | 220 | 22.5 | 38.6 | 0.00 | 0.00 | 0.00 | 46 | 1004.3 |
| 20260505151855 | 23 | 287 | 9.7 | 17.7 | 0.00 | 0.00 | 0.00 | 47 | 1004.5 |
| 20260505151352 | 24 | 188 | 14.5 | 22.5 | 0.00 | 0.00 | 0.00 | 46 | 1004.3 |
| 20260505150849 | 23 | 219 | 6.4 | 17.7 | 0.00 | 0.00 | 0.00 | 48 | 1004.5 |
| 20260505150347 | 23 | 202 | 6.4 | 33.8 | 0.00 | 0.00 | 0.00 | 47 | 1004.5 |
| 20260505140316 | 22 | 256 | 3.2 | 22.5 | 0.00 | 0.00 | 0.00 | 52 | 1004.6 |
| 20260505130240 | 18 | 106 | 3.2 | 14.5 | 0.00 | 0.00 | 0.00 | 67 | 1005.5 |
| 20260505124731 | 17 | 257 | 4.8 | 6.4 | 0.00 | 0.00 | 0.00 | 71 | 1005.7 |
| 20260505124227 | 17 | 155 | 0.0 | 6.4 | 0.00 | 0.00 | 0.00 | 73 | 1005.7 |
| 20260505123722 | 17 | 199 | 1.6 | 6.4 | 0.00 | 0.00 | 0.00 | 74 | 1005.7 |
| 20260505123220 | 16 | 222 | 6.4 | 9.7 | 0.00 | 0.00 | 0.00 | 73 | 1005.7 |
| 20260505122716 | 16 | 166 | 3.2 | 8.0 | 0.00 | 0.00 | 0.00 | 76 | 1005.7 |
| 20260505122214 | 16 | 88 | 1.6 | 3.2 | 0.00 | 0.00 | 0.00 | 79 | 1005.6 |
| 20260505121710 | 15 | 272 | 1.6 | 6.4 | 0.00 | 0.00 | 0.00 | 79 | 1005.7 |
| 20260505121207 | 15 | 163 | 3.2 | 6.4 | 0.00 | 0.00 | 0.00 | 80 | 1005.7 |
| 20260505120703 | 15 | 132 | 3.2 | 4.8 | 0.00 | 0.00 | 0.00 | 81 | 1005.8 |
| 20260505120159 | 15 | 146 | 1.6 | 4.8 | 0.00 | 0.00 | 0.00 | 81 | 1005.8 |
| 20260505115653 | 15 | 214 | 1.6 | 6.4 | 0.00 | 0.00 | 0.00 | 81 | 1005.4 |
| 20260505115151 | 15 | 103 | 3.2 | 4.8 | 0.00 | 0.00 | 0.00 | 81 | 1005.6 |
| 20260505114648 | 15 | 74 | 1.6 | 3.2 | 0.00 | 0.00 | 0.00 | 79 | 1005.1 |
| 20260505114144 | 15 | 155 | 3.2 | 8.0 | 0.00 | 0.00 | 0.00 | 77 | 1005.2 |
| 20260505113640 | 15 | 341 | 1.6 | 9.7 | 0.00 | 0.00 | 0.00 | 80 | 1005.6 |
| 20260505113137 | 15 | 260 | 3.2 | 8.0 | 0.00 | 0.00 | 0.00 | 81 | 1005.5 |
| 20260505112633 | 15 | 180 | 3.2 | 8.0 | 0.05 | 0.00 | 0.00 | 80 | 1005.4 |
| 20260505112132 | 14 | 238 | 0.0 | 4.8 | 0.05 | 0.00 | 0.00 | 81 | 1005.7 |
| 20260505111631 | 15 | 228 | 6.4 | 22.5 | 0.00 | 0.00 | 0.00 | 76 | 1005.9 |
| 20260505111127 | 14 | 131 | 4.8 | 6.4 | 0.00 | 0.00 | 0.00 | 73 | 1005.4 |
| 20260505110624 | 13 | 51 | 0.0 | 3.2 | 0.00 | 0.00 | 0.00 | 75 | 1005.6 |
| 20260505110121 | 13 | 24 | 0.0 | 3.2 | 0.00 | 0.00 | 0.00 | 76 | 1005.8 |
| 20260505102056 | 11 | 64 | 1.6 | 3.2 | 0.00 | 0.00 | 0.00 | 82 | 1005.6 |
| 20260505101555 | 11 | 56 | 0.0 | 3.2 | 0.00 | 0.00 | 0.00 | 81 | 1005.5 |
| 20260505101051 | 11 | 88 | 1.6 | 3.2 | 0.00 | 0.00 | 0.00 | 79 | 1005.3 |
| 20260505100548 | 12 | 65 | 3.2 | 4.8 | 0.00 | 0.00 | 0.00 | 78 | 1005.4 |
| 20260505100044 | 12 | 35 | 0.0 | 4.8 | 0.00 | 0.00 | 0.00 | 76 | 1005.3 |
| 20260505095541 | 12 | 89 | 0.0 | 3.2 | 0.00 | 0.00 | 0.00 | 76 | 1005.1 |
| 20260505095037 | 12 | 254 | 3.2 | 4.8 | 0.00 | 0.00 | 0.00 | 76 | 1005.2 |
| 20260505094534 | 12 | 331 | 1.6 | 1.6 | 0.00 | 0.00 | 0.00 | 77 | 1004.9 |
| 20260505094030 | 12 | 69 | 0.0 | 3.2 | 0.00 | 0.00 | 0.00 | 75 | 1004.8 |
| 20260505093527 | 13 | 249 | 0.0 | 3.2 | 0.00 | 0.00 | 0.00 | 74 | 1004.8 |
| 20260505093024 | 13 | 284 | 1.6 | 3.2 | 0.00 | 0.00 | 0.00 | 72 | 1004.7 |
| 20260505092521 | 13 | 303 | 0.0 | 1.6 | 0.00 | 0.00 | 0.00 | 73 | 1004.9 |
| 20260505092020 | 13 | 38 | 0.0 | 3.2 | 0.00 | 0.00 | 0.00 | 71 | 1004.8 |
| 20260505091516 | 13 | 285 | 3.2 | 3.2 | 0.00 | 0.00 | 0.00 | 70 | 1004.6 |
| 20260505091014 | 14 | 318 | 3.2 | 6.4 | 0.00 | 0.00 | 0.00 | 69 | 1004.5 |
| 20260505090512 | 13 | 343 | 1.6 | 6.4 | 0.00 | 0.00 | 0.00 | 70 | 1004.5 |
| 20260505090010 | 13 | 298 | 4.8 | 6.4 | 0.00 | 0.00 | 0.00 | 70 | 1004.6 |
| 20260505085508 | 13 | 320 | 3.2 | 4.8 | 0.00 | 0.00 | 0.00 | 70 | 1004.6 |
| 20260505085006 | 13 | 305 | 3.2 | 6.4 | 0.00 | 0.00 | 0.00 | 70 | 1004.7 |
| 20260505084503 | 13 | 347 | 1.6 | 4.8 | 0.00 | 0.00 | 0.00 | 69 | 1004.8 |
| 20260505084001 | 13 | 293 | 3.2 | 3.2 | 0.00 | 0.00 | 0.00 | 69 | 1004.5 |
| 20260505083458 | 13 | 317 | 1.6 | 3.2 | 0.00 | 0.00 | 0.00 | 69 | 1004.4 |
| 20260505082954 | 13 | 302 | 3.2 | 3.2 | 0.00 | 0.00 | 0.00 | 69 | 1004.7 |
| 20260505082450 | 13 | 300 | 3.2 | 3.2 | 0.00 | 0.00 | 0.00 | 68 | 1004.7 |
| 20260505081947 | 13 | 273 | 3.2 | 4.8 | 0.00 | 0.00 | 0.00 | 68 | 1004.5 |
| 20260505081444 | 14 | 274 | 1.6 | 4.8 | 0.00 | 0.00 | 0.00 | 67 | 1004.7 |
| 20260505080940 | 14 | 308 | 1.6 | 4.8 | 0.00 | 0.00 | 0.00 | 67 | 1004.5 |
| 20260505080436 | 14 | 311 | 3.2 | 3.2 | 0.00 | 0.00 | 0.00 | 67 | 1004.9 |
| 20260505075932 | 14 | 280 | 4.8 | 4.8 | 0.00 | 0.00 | 0.00 | 67 | 1004.8 |
| 20260505075429 | 14 | 321 | 3.2 | 3.2 | 0.00 | 0.00 | 0.00 | 66 | 1004.6 |
| 20260505074927 | 14 | 324 | 0.0 | 3.2 | 0.00 | 0.00 | 0.00 | 66 | 1004.7 |
| 20260505074424 | 15 | 291 | 1.6 | 3.2 | 0.00 | 0.00 | 0.00 | 66 | 1004.9 |
| 20260505073921 | 15 | 241 | 1.6 | 3.2 | 0.00 | 0.00 | 0.00 | 64 | 1004.8 |
| 20260505073419 | 15 | 243 | 0.0 | 3.2 | 0.00 | 0.00 | 0.00 | 62 | 1004.9 |
| 20260505072916 | 15 | 11 | 3.2 | 3.2 | 0.00 | 0.00 | 0.00 | 61 | 1004.7 |
| 20260505072411 | 15 | 318 | 1.6 | 1.6 | 0.00 | 0.00 | 0.00 | 62 | 1004.8 |
| 20260505071908 | 15 | 328 | 1.6 | 3.2 | 0.00 | 0.00 | 0.00 | 62 | 1004.8 |
| 20260505071404 | 15 | 302 | 1.6 | 3.2 | 0.00 | 0.00 | 0.00 | 62 | 1004.7 |
| 20260505070902 | 15 | 257 | 3.2 | 4.8 | 0.00 | 0.00 | 0.00 | 62 | 1004.8 |
| 20260505070358 | 15 | 126 | 0.0 | 3.2 | 0.00 | 0.00 | 0.00 | 61 | 1004.9 |
| 20260505065854 | 15 | 198 | 3.2 | 6.4 | 0.00 | 0.00 | 0.00 | 60 | 1004.6 |
| 20260505065351 | 15 | 310 | 0.0 | 3.2 | 0.00 | 0.00 | 0.00 | 61 | 1004.9 |
| 20260505064848 | 15 | 214 | 0.0 | 1.6 | 0.00 | 0.00 | 0.00 | 61 | 1004.9 |
| 20260505064345 | 15 | 123 | 0.0 | 4.8 | 0.00 | 0.00 | 0.00 | 60 | 1004.8 |
| 20260505063843 | 15 | 121 | 0.0 | 6.4 | 0.00 | 0.00 | 0.00 | 59 | 1005.0 |
| 20260505063339 | 15 | 254 | 3.2 | 3.2 | 0.00 | 0.00 | 0.00 | 59 | 1004.8 |
| 20260505062836 | 16 | 58 | 4.8 | 4.8 | 0.00 | 0.00 | 0.00 | 58 | 1004.8 |
| 20260505062333 | 16 | 198 | 1.6 | 6.4 | 0.00 | 0.00 | 0.00 | 56 | 1004.9 |
| 20260505061830 | 16 | 310 | 1.6 | 6.4 | 0.00 | 0.00 | 0.00 | 56 | 1005.0 |
| 20260505061328 | 16 | 1 | 1.6 | 6.4 | 0.00 | 0.00 | 0.00 | 57 | 1004.7 |
| 20260505060825 | 16 | 337 | 0.0 | 6.4 | 0.00 | 0.00 | 0.00 | 56 | 1004.7 |
| 20260505060322 | 16 | 88 | 1.6 | 9.7 | 0.00 | 0.00 | 0.00 | 56 | 1005.0 |
| 20260505055817 | 16 | 186 | 4.8 | 8.0 | 0.00 | 0.00 | 0.00 | 56 | 1004.7 |
| 20260505055314 | 16 | 215 | 3.2 | 4.8 | 0.00 | 0.00 | 0.00 | 56 | 1004.8 |
| 20260505054812 | 16 | 141 | 3.2 | 4.8 | 0.00 | 0.00 | 0.00 | 58 | 1004.9 |
| 20260505054308 | 15 | 304 | 3.2 | 4.8 | 0.00 | 0.00 | 0.00 | 59 | 1005.0 |
| 20260505053807 | 16 | 198 | 3.2 | 4.8 | 0.00 | 0.00 | 0.00 | 58 | 1005.1 |
| 20260505053303 | 15 | 179 | 4.8 | 4.8 | 0.00 | 0.00 | 0.00 | 58 | 1004.9 |
| 20260505052800 | 16 | 223 | 1.6 | 3.2 | 0.00 | 0.00 | 0.00 | 57 | 1005.0 |
| 20260505052257 | 16 | 212 | 4.8 | 6.4 | 0.00 | 0.00 | 0.00 | 56 | 1004.8 |
| 20260505051754 | 16 | 265 | 4.8 | 4.8 | 0.00 | 0.00 | 0.00 | 55 | 1005.0 |
| 20260505051252 | 16 | 336 | 3.2 | 6.4 | 0.00 | 0.00 | 0.00 | 54 | 1004.9 |
| 20260505050750 | 17 | 204 | 4.8 | 16.1 | 0.00 | 0.00 | 0.00 | 53 | 1004.8 |
| 20260505050248 | 16 | 236 | 11.3 | 12.9 | 0.00 | 0.00 | 0.00 | 55 | 1005.0 |
| 20260505041718 | 16 | 264 | 3.2 | 6.4 | 0.00 | 0.00 | 0.00 | 57 | 1004.8 |
| 20260505041215 | 16 | 20 | 3.2 | 3.2 | 0.00 | 0.00 | 0.00 | 55 | 1004.9 |
| 20260505040712 | 16 | 139 | 1.6 | 4.8 | 0.00 | 0.00 | 0.00 | 54 | 1004.7 |
| 20260505040209 | 16 | 105 | 1.6 | 6.4 | 0.00 | 0.00 | 0.00 | 54 | 1004.9 |
| 20260505035706 | 16 | 155 | 1.6 | 6.4 | 0.00 | 0.00 | 0.00 | 53 | 1004.8 |
| 20260505035202 | 16 | 245 | 6.4 | 6.4 | 0.00 | 0.00 | 0.00 | 53 | 1004.7 |
| 20260505034658 | 17 | 243 | 4.8 | 4.8 | 0.00 | 0.00 | 0.00 | 53 | 1004.6 |
| 20260505034156 | 17 | 188 | 3.2 | 6.4 | 0.00 | 0.00 | 0.00 | 52 | 1004.6 |
| 20260505033652 | 16 | 206 | 9.7 | 9.7 | 0.00 | 0.00 | 0.00 | 52 | 1004.7 |
| 20260505033151 | 17 | 189 | 3.2 | 8.0 | 0.00 | 0.00 | 0.00 | 52 | 1004.8 |
| 20260505032648 | 17 | 229 | 9.7 | 9.7 | 0.00 | 0.00 | 0.00 | 51 | 1004.8 |
| 20260505032144 | 17 | 267 | 9.7 | 9.7 | 0.00 | 0.00 | 0.00 | 51 | 1004.7 |
| 20260505031642 | 17 | 233 | 3.2 | 17.7 | 0.00 | 0.00 | 0.00 | 50 | 1004.8 |
| 20260505031137 | 17 | 188 | 6.4 | 8.0 | 0.00 | 0.00 | 0.00 | 51 | 1004.8 |
| 20260505030635 | 17 | 85 | 3.2 | 19.3 | 0.00 | 0.00 | 0.00 | 50 | 1004.8 |
| 20260505030130 | 17 | 97 | 6.4 | 14.5 | 0.00 | 0.00 | 0.00 | 50 | 1004.9 |
| 20260505025626 | 17 | 241 | 6.4 | 6.4 | 0.00 | 0.00 | 0.00 | 50 | 1004.8 |
| 20260505025125 | 17 | 297 | 4.8 | 12.9 | 0.00 | 0.00 | 0.00 | 49 | 1004.8 |
| 20260505024622 | 17 | 7 | 3.2 | 9.7 | 0.00 | 0.00 | 0.00 | 50 | 1004.6 |
| 20260505024119 | 17 | 117 | 0.0 | 8.0 | 0.00 | 0.00 | 0.00 | 49 | 1005.0 |
| 20260505023617 | 17 | 181 | 3.2 | 9.7 | 0.00 | 0.00 | 0.00 | 49 | 1005.1 |
| 20260505023114 | 17 | 261 | 3.2 | 6.4 | 0.00 | 0.00 | 0.00 | 49 | 1004.8 |
| 20260505022611 | 17 | 289 | 3.2 | 11.3 | 0.00 | 0.00 | 0.00 | 48 | 1005.0 |
| 20260505022108 | 17 | 297 | 6.4 | 16.1 | 0.00 | 0.00 | 0.00 | 48 | 1005.1 |
| 20260505021605 | 17 | 266 | 4.8 | 6.4 | 0.00 | 0.00 | 0.00 | 49 | 1005.1 |
| 20260505021102 | 17 | 259 | 3.2 | 6.4 | 0.00 | 0.00 | 0.00 | 48 | 1005.1 |
| 20260505020602 | 18 | 162 | 4.8 | 9.7 | 0.00 | 0.00 | 0.00 | 48 | 1005.0 |
| 20260505020059 | 18 | 189 | 1.6 | 8.0 | 0.00 | 0.00 | 0.00 | 47 | 1005.0 |
| 20260505015556 | 17 | 239 | 3.2 | 6.4 | 0.00 | 0.00 | 0.00 | 47 | 1005.0 |
| 20260505015053 | 17 | 265 | 3.2 | 9.7 | 0.00 | 0.00 | 0.00 | 47 | 1004.8 |
| 20260505014549 | 17 | 200 | 4.8 | 8.0 | 0.00 | 0.00 | 0.00 | 47 | 1004.9 |
| 20260505014047 | 17 | 162 | 4.8 | 8.0 | 0.00 | 0.00 | 0.00 | 47 | 1004.8 |
| 20260505013543 | 18 | 236 | 1.6 | 11.3 | 0.00 | 0.00 | 0.00 | 47 | 1004.9 |
| 20260505013041 | 17 | 164 | 3.2 | 6.4 | 0.00 | 0.00 | 0.00 | 47 | 1004.5 |
| 20260505012539 | 18 | 220 | 3.2 | 8.0 | 0.00 | 0.00 | 0.00 | 47 | 1004.5 |
| 20260505012036 | 17 | 247 | 4.8 | 6.4 | 0.00 | 0.00 | 0.00 | 47 | 1004.6 |
| 20260505011537 | 18 | 152 | 3.2 | 12.9 | 0.00 | 0.00 | 0.00 | 47 | 1004.6 |
| 20260505011034 | 18 | 199 | 8.0 | 11.3 | 0.00 | 0.00 | 0.00 | 46 | 1004.8 |
| 20260505010529 | 17 | 179 | 3.2 | 4.8 | 0.00 | 0.00 | 0.00 | 48 | 1004.4 |
| 20260505010026 | 17 | 234 | 3.2 | 4.8 | 0.00 | 0.00 | 0.00 | 48 | 1004.6 |
| 20260505005523 | 18 | 267 | 3.2 | 6.4 | 0.00 | 0.00 | 0.00 | 47 | 1004.5 |
| 20260505005020 | 18 | 213 | 1.6 | 9.7 | 0.00 | 0.00 | 0.00 | 46 | 1004.3 |
| 20260505004517 | 18 | 167 | 3.2 | 8.0 | 0.00 | 0.00 | 0.00 | 47 | 1004.4 |
| 20260505004014 | 18 | 262 | 9.7 | 9.7 | 0.00 | 0.00 | 0.00 | 44 | 1004.2 |
| 20260505003511 | 18 | 153 | 1.6 | 8.0 | 0.00 | 0.00 | 0.00 | 45 | 1004.2 |
| 20260505003008 | 19 | 262 | 8.0 | 9.7 | 0.00 | 0.00 | 0.00 | 44 | 1004.4 |
| 20260505002503 | 19 | 220 | 3.2 | 6.4 | 0.00 | 0.00 | 0.00 | 44 | 1004.4 |
| 20260505002002 | 19 | 73 | 3.2 | 8.0 | 0.00 | 0.00 | 0.00 | 44 | 1004.2 |
| 20260505001459 | 19 | 170 | 0.0 | 9.7 | 0.00 | 0.00 | 0.00 | 43 | 1004.2 |
| 20260505000956 | 19 | 98 | 1.6 | 6.4 | 0.00 | 0.00 | 0.00 | 43 | 1004.0 |
| 20260505000454 | 19 | 202 | 4.8 | 11.3 | 0.00 | 0.00 | 0.00 | 43 | 1004.1 |
| 20260504235951 | 19 | 96 | 3.2 | 9.7 | 0.00 | 0.00 | 0.00 | 43 | 1004.0 |
| 20260504235448 | 19 | 188 | 1.6 | 8.0 | 0.00 | 0.00 | 0.00 | 42 | 1004.1 |
| 20260504234944 | 20 | 51 | 4.8 | 9.7 | 0.00 | 0.00 | 0.00 | 42 | 1004.0 |
| 20260504234441 | 20 | 246 | 4.8 | 12.9 | 0.00 | 0.00 | 0.00 | 41 | 1003.8 |
| 20260504233938 | 20 | 96 | 1.6 | 12.9 | 0.00 | 0.00 | 0.00 | 41 | 1003.9 |
| 20260504233434 | 20 | 316 | 1.6 | 11.3 | 0.00 | 0.00 | 0.00 | 41 | 1004.0 |
| 20260504232931 | 20 | 154 | 4.8 | 19.3 | 0.00 | 0.00 | 0.00 | 40 | 1003.8 |
| 20260504232428 | 20 | 229 | 12.9 | 20.9 | 0.00 | 0.00 | 0.00 | 39 | 1003.8 |
| 20260504231925 | 21 | 173 | 4.8 | 27.4 | 0.00 | 0.00 | 0.00 | 38 | 1003.7 |
| 20260504231421 | 21 | 209 | 9.7 | 17.7 | 0.00 | 0.00 | 0.00 | 38 | 1003.9 |